Temp
-16 -16 -16 -16 -16 -16 -16 -16 -16 -16 -16 -16 -17 -16 -17 -17 -17 -18 -19 -19 -20 -20 -20 -20 -20 -21 -21 -21 -22 -23 -23 -24 -24 -25 -27 -28 -29 -30 -31 -31 -31 -31 -31
-16 -17 -17 -17 -17 -17 -16 -16 -16 -16 -16 -16 -17 -17 -17 -18 -18 -19 -19 -20 -21 -21 -21 -21 -21 -21 -21 -22 -22 -23 -24 -25 -26 -27 -29 -30 -30 -31 -31 -31 -31 -31 -32
-17 -17 -17 -17 -17 -17 -17 -16 -16 -16 -16 -16 -17 -17 -18 -18 -19 -20 -20 -21 -21 -21 -21 -21 -21 -22 -22 -23 -23 -24 -25 -26 -27 -28 -30 -30 -31 -31 -31 -31 -31 -31 -32
-17 -17 -17 -17 -17 -16 -16 -16 -16 -16 -17 -17 -17 -18 -18 -19 -20 -20 -20 -21 -21 -21 -21 -22 -22 -22 -23 -24 -24 -25 -26 -27 -28 -30 -31 -31 -31 -31 -31 -31 -32 -32 -33
-17 -17 -17 -16 -16 -16 -16 -16 -16 -16 -17 -17 -17 -18 -19 -19 -20 -21 -21 -21 -21 -21 -22 -22 -22 -23 -23 -24 -25 -26 -27 -28 -30 -31 -31 -31 -32 -32 -32 -32 -32 -33 -33
-17 -16 -16 -16 -16 -16 -16 -16 -16 -16 -17 -17 -18 -18 -19 -20 -20 -20 -21 -21 -22 -22 -22 -22 -23 -23 -24 -25 -26 -27 -28 -30 -31 -31 -32 -32 -32 -32 -32 -32 -32 -33 -34
-16 -16 -16 -16 -16 -16 -16 -16 -17 -17 -17 -17 -18 -19 -19 -21 -21 -21 -22 -22 -22 -22 -22 -23 -23 -24 -25 -26 -27 -28 -30 -31 -32 -32 -32 -32 -32 -32 -32 -33 -33 -34 -34
-16 -16 -16 -16 -16 -17 -17 -17 -17 -17 -18 -18 -19 -19 -20 -21 -21 -22 -22 -22 -22 -22 -23 -23 -24 -25 -26 -27 -29 -29 -31 -32 -32 -32 -32 -32 -32 -33 -33 -33 -34 -34 -35
-17 -17 -17 -17 -17 -17 -17 -17 -17 -18 -18 -19 -19 -20 -21 -21 -22 -22 -22 -22 -22 -23 -23 -24 -25 -26 -27 -28 -30 -31 -32 -32 -32 -32 -32 -32 -33 -33 -33 -34 -34 -34 -35
-17 -17 -17 -17 -17 -17 -17 -17 -18 -18 -19 -19 -20 -21 -21 -22 -22 -22 -22 -22 -23 -23 -24 -25 -26 -27 -29 -30 -32 -32 -32 -32 -32 -32 -33 -33 -33 -33 -34 -34 -35 -35 -35
-17 -17 -17 -17 -18 -18 -18 -18 -18 -19 -19 -20 -21 -21 -21 -22 -22 -22 -23 -23 -24 -24 -24 -25 -27 -28 -30 -32 -32 -32 -32 -33 -33 -33 -33 -33 -33 -34 -34 -34 -35 -35 -35
-18 -18 -18 -18 -18 -18 -18 -19 -19 -20 -20 -21 -21 -21 -22 -22 -22 -23 -24 -24 -24 -24 -25 -26 -28 -30 -31 -32 -32 -33 -33 -33 -33 -33 -33 -33 -34 -34 -35 -35 -35 -36 -36
-18 -18 -18 -18 -18 -19 -19 -19 -19 -20 -20 -21 -21 -22 -22 -22 -23 -23 -24 -25 -26 -27 -28 -28 -29 -31 -32 -32 -33 -33 -33 -33 -33 -34 -34 -34 -34 -35 -35 -36 -36 -36 -36
-18 -19 -19 -19 -19 -19 -19 -20 -20 -20 -21 -21 -21 -22 -22 -23 -23 -23 -24 -25 -26 -27 -28 -29 -30 -31 -31 -32 -32 -33 -34 -34 -34 -34 -35 -35 -35 -36 -36 -36 -36 -36 -36
-19 -19 -19 -19 -19 -20 -20 -20 -20 -21 -21 -22 -22 -22 -23 -23 -24 -24 -25 -26 -26 -27 -28 -29 -30 -31 -31 -31 -32 -33 -34 -34 -35 -35 -35 -36 -36 -36 -36 -36 -36 -37 -37
-19 -19 -20 -20 -20 -20 -20 -20 -21 -22 -22 -23 -23 -23 -24 -24 -25 -26 -26 -28 -28 -29 -30 -30 -30 -31 -31 -32 -34 -34 -34 -34 -35 -36 -36 -36 -36 -36 -36 -36 -36 -37 -37
-20 -20 -20 -20 -20 -21 -21 -22 -22 -22 -23 -23 -24 -24 -25 -26 -27 -27 -28 -29 -30 -30 -31 -31 -31 -32 -33 -33 -34 -34 -34 -34 -35 -36 -36 -36 -36 -37 -37 -37 -37 -37 -37
-20 -20 -21 -21 -21 -21 -22 -22 -23 -23 -24 -24 -25 -25 -27 -27 -28 -29 -29 -30 -31 -31 -31 -32 -32 -33 -33 -34 -34 -34 -34 -35 -35 -36 -37 -37 -37 -37 -37 -37 -37 -37 -37
-20 -21 -21 -21 -22 -22 -22 -23 -23 -24 -24 -25 -26 -27 -28 -29 -29 -30 -31 -31 -31 -31 -32 -32 -33 -33 -33 -33 -34 -34 -35 -35 -35 -35 -36 -37 -37 -37 -37 -37 -37 -37 -37
-21 -21 -22 -22 -22 -23 -23 -24 -24 -25 -26 -27 -28 -28 -29 -30 -31 -32 -31 -31 -32 -33 -33 -33 -33 -34 -34 -35 -35 -35 -35 -35 -35 -35 -37 -37 -37 -37 -37 -37 -37 -37 -37
-22 -22 -22 -23 -23 -24 -24 -25 -26 -27 -27 -28 -29 -30 -31 -31 -32 -32 -32 -32 -32 -33 -33 -33 -34 -34 -34 -35 -36 -36 -36 -36 -36 -36 -37 -37 -37 -37 -37 -37 -37 -37 -37
-22 -23 -23 -24 -24 -25 -26 -26 -27 -28 -29 -30 -30 -31 -32 -33 -33 -33 -32 -33 -33 -33 -33 -34 -35 -35 -35 -35 -35 -36 -36 -36 -37 -37 -38 -37 -37 -37 -38 -38 -37 -37 -37
-23 -23 -24 -25 -25 -26 -27 -28 -29 -29 -30 -31 -31 -32 -33 -33 -33 -33 -33 -33 -34 -34 -35 -35 -35 -35 -35 -35 -36 -36 -36 -37 -38 -38 -38 -38 -38 -38 -38 -38 -38 -37 -37
-24 -25 -25 -26 -27 -28 -29 -30 -30 -31 -31 -32 -32 -33 -33 -33 -33 -33 -33 -34 -35 -35 -35 -35 -36 -35 -35 -35 -36 -37 -37 -37 -38 -38 -38 -38 -38 -38 -38 -38 -38 -38 -38
-25 -26 -27 -28 -29 -30 -30 -31 -31 -32 -32 -33 -33 -33 -34 -33 -33 -34 -34 -35 -35 -36 -35 -36 -36 -36 -36 -36 -37 -37 -38 -38 -38 -38 -38 -38 -38 -38 -38 -38 -38 -38 -38
-27 -28 -29 -30 -30 -31 -31 -32 -32 -33 -33 -33 -33 -34 -34 -34 -34 -34 -35 -36 -36 -36 -36 -37 -37 -36 -36 -37 -38 -38 -39 -39 -38 -38 -38 -38 -38 -38 -38 -38 -38 -38 -38
Height
5747 5746 5745 5742 5738 5734 5731 5728 5725 5723 5720 5717 5713 5709 5704 5699 5694 5687 5678 5668 5661 5651 5644 5636 5628 5621 5612 5604 5594 5584 5573 5562 5553 5542 5527 5517 5511 5502 5493 5483 5473 5464 5453
5741 5739 5737 5735 5731 5727 5724 5721 5718 5714 5710 5707 5702 5698 5694 5688 5681 5673 5663 5655 5647 5637 5631 5623 5615 5606 5598 5587 5576 5567 5556 5545 5534 5526 5514 5504 5496 5488 5480 5471 5461 5451 5441
5733 5731 5728 5726 5722 5718 5715 5712 5708 5704 5700 5696 5690 5685 5680 5673 5664 5656 5650 5643 5632 5626 5618 5610 5601 5591 5582 5570 5560 5549 5538 5528 5518 5509 5502 5491 5484 5475 5468 5459 5450 5439 5430
5725 5723 5720 5717 5714 5710 5707 5703 5698 5693 5688 5683 5677 5671 5666 5660 5651 5643 5635 5626 5619 5612 5603 5595 5585 5575 5564 5553 5543 5533 5522 5510 5500 5493 5487 5479 5471 5463 5455 5447 5439 5428 5420
5716 5713 5710 5707 5704 5701 5697 5692 5686 5681 5675 5670 5664 5659 5652 5644 5638 5630 5619 5613 5605 5597 5588 5578 5569 5559 5548 5537 5526 5515 5504 5495 5486 5480 5474 5466 5459 5451 5443 5435 5427 5419 5410
5706 5703 5701 5698 5694 5690 5684 5679 5674 5669 5664 5658 5652 5646 5639 5633 5624 5616 5608 5600 5592 5583 5574 5564 5553 5543 5532 5520 5510 5500 5489 5480 5473 5467 5461 5453 5447 5440 5432 5425 5417 5409 5403
5696 5693 5690 5687 5682 5678 5673 5668 5662 5657 5651 5644 5638 5631 5623 5616 5609 5601 5593 5585 5578 5568 5557 5547 5536 5525 5515 5503 5494 5483 5476 5468 5461 5453 5448 5441 5436 5428 5421 5414 5407 5400 5393
5686 5683 5679 5675 5670 5666 5661 5655 5650 5643 5636 5629 5622 5615 5608 5600 5593 5585 5577 5569 5561 5551 5540 5529 5519 5508 5496 5485 5472 5467 5461 5454 5449 5441 5436 5429 5423 5417 5410 5404 5397 5390 5384
5677 5672 5668 5664 5659 5654 5648 5641 5635 5628 5621 5614 5607 5599 5592 5585 5576 5568 5560 5554 5545 5534 5523 5512 5500 5488 5477 5468 5457 5452 5445 5440 5434 5430 5424 5418 5412 5406 5399 5393 5387 5381 5376
5666 5661 5657 5651 5646 5640 5634 5628 5621 5613 5606 5599 5591 5584 5577 5571 5562 5553 5542 5534 5527 5516 5507 5494 5482 5470 5455 5450 5441 5437 5433 5425 5417 5416 5410 5404 5399 5394 5388 5383 5377 5372 5367
5653 5648 5643 5638 5632 5626 5620 5614 5606 5599 5591 5585 5578 5571 5563 5555 5545 5534 5522 5513 5503 5497 5486 5474 5461 5449 5441 5430 5426 5421 5418 5410 5402 5399 5396 5391 5386 5382 5377 5373 5367 5362 5359
5641 5636 5631 5625 5619 5613 5606 5599 5592 5585 5578 5570 5563 5554 5545 5537 5527 5516 5504 5492 5480 5470 5463 5453 5440 5429 5422 5414 5407 5404 5399 5393 5387 5384 5381 5376 5372 5368 5364 5360 5356 5353 5349
5628 5623 5617 5611 5604 5597 5590 5583 5576 5569 5562 5554 5546 5537 5529 5519 5508 5499 5486 5474 5460 5446 5435 5425 5417 5408 5399 5392 5388 5383 5379 5373 5370 5366 5365 5362 5358 5355 5352 5350 5347 5343 5341
5614 5609 5602 5595 5588 5581 5574 5567 5560 5552 5545 5538 5530 5520 5510 5500 5489 5479 5468 5455 5443 5430 5417 5406 5393 5383 5376 5368 5363 5360 5358 5355 5352 5350 5349 5347 5345 5343 5342 5339 5337 5335 5333
5599 5592 5586 5579 5572 5565 5558 5550 5543 5536 5527 5518 5510 5501 5491 5481 5468 5455 5443 5431 5417 5406 5394 5384 5374 5363 5353 5346 5341 5338 5336 5336 5335 5336 5335 5335 5333 5333 5332 5329 5328 5327 5326
5583 5576 5570 5563 5556 5548 5540 5534 5525 5515 5507 5498 5490 5482 5470 5458 5446 5433 5419 5404 5392 5378 5369 5357 5348 5338 5330 5323 5319 5318 5318 5318 5320 5321 5324 5324 5322 5322 5322 5320 5319 5319 5318
5567 5561 5554 5547 5540 5532 5524 5515 5506 5499 5490 5479 5468 5458 5447 5436 5425 5413 5400 5385 5370 5358 5346 5337 5328 5320 5314 5309 5305 5303 5303 5303 5305 5307 5309 5311 5311 5311 5311 5310 5310 5311 5311
5552 5545 5538 5531 5524 5516 5507 5498 5489 5480 5469 5459 5449 5439 5427 5415 5402 5389 5376 5364 5353 5339 5328 5318 5312 5305 5301 5297 5294 5291 5290 5290 5291 5294 5297 5298 5299 5300 5300 5301 5302 5304 5304
5535 5528 5522 5514 5506 5498 5489 5480 5470 5460 5450 5439 5429 5418 5408 5395 5382 5369 5355 5343 5332 5321 5312 5303 5295 5290 5287 5284 5281 5279 5278 5278 5279 5281 5284 5287 5289 5290 5290 5292 5294 5296 5297
5517 5511 5504 5496 5487 5479 5470 5461 5451 5441 5430 5419 5409 5399 5388 5377 5365 5353 5341 5327 5315 5304 5296 5288 5281 5275 5271 5269 5268 5267 5267 5268 5269 5271 5273 5277 5279 5281 5282 5284 5287 5290 5291
5500 5493 5485 5477 5468 5459 5450 5441 5431 5421 5411 5401 5390 5379 5368 5358 5348 5337 5325 5312 5300 5291 5281 5272 5265 5260 5257 5256 5255 5256 5257 5258 5260 5262 5265 5269 5271 5272 5274 5277 5280 5283 5284
5481 5473 5465 5456 5447 5438 5429 5420 5411 5402 5392 5383 5372 5361 5351 5341 5331 5320 5308 5296 5285 5275 5266 5257 5251 5247 5244 5243 5243 5245 5247 5249 5251 5254 5257 5260 5262 5264 5267 5270 5274 5277 5278
5461 5453 5444 5435 5426 5417 5408 5400 5391 5382 5373 5364 5354 5344 5334 5325 5315 5305 5293 5281 5271 5261 5252 5246 5240 5235 5232 5230 5231 5234 5237 5239 5243 5246 5249 5252 5255 5258 5260 5264 5267 5270 5273
5440 5431 5422 5413 5405 5397 5389 5380 5372 5364 5354 5345 5335 5326 5317 5309 5299 5289 5277 5267 5257 5248 5241 5234 5229 5224 5221 5219 5219 5223 5226 5230 5235 5238 5241 5244 5247 5250 5253 5257 5261 5264 5266
5417 5409 5400 5392 5385 5377 5369 5361 5353 5344 5335 5326 5316 5308 5299 5291 5282 5272 5261 5252 5244 5236 5229 5223 5218 5213 5209 5207 5208 5212 5217 5222 5227 5230 5234 5236 5239 5241 5245 5250 5254 5258 5260
5396 5388 5381 5373 5365 5358 5350 5342 5334 5325 5316 5306 5298 5289 5282 5274 5264 5255 5246 5238 5231 5224 5217 5212 5208 5203 5199 5197 5198 5203 5208 5213 5218 5222 5225 5228 5231 5234 5239 5243 5248 5251 5254
Wind_Speed
22 27 30 35 38 37 34 34 38 39 40 43 42 39 42 52 60 67 66 67 63 63 62 64 68 71 72 80 82 83 84 84 84 83 80 72 66 63 62 62 62 63 60
28 32 36 36 40 41 40 39 40 41 43 45 48 51 54 59 59 61 63 61 57 58 62 67 77 77 79 85 84 84 84 85 84 81 68 64 63 62 60 59 60 61 56
33 35 37 41 41 40 41 42 43 44 45 47 48 52 54 55 58 62 60 57 60 63 67 69 75 78 84 85 85 84 85 85 83 74 62 61 59 60 57 57 58 59 54
34 37 39 39 40 41 42 42 43 43 45 48 51 54 54 56 58 60 60 60 62 67 69 73 77 81 83 84 84 84 84 82 76 63 59 57 57 57 56 56 56 57 52
35 36 38 39 39 40 40 41 45 47 49 52 55 56 57 53 59 53 60 64 67 70 74 76 79 81 82 83 84 84 84 77 65 60 56 54 56 56 55 55 55 54 51
35 35 35 37 38 39 42 45 48 50 53 55 58 57 57 56 53 52 64 66 67 71 75 78 80 81 82 84 84 83 78 68 60 57 54 55 55 55 53 54 54 51 47
34 35 36 38 40 43 46 48 50 53 55 56 57 58 58 55 57 61 65 67 70 73 77 80 81 82 83 84 83 80 69 61 57 57 55 54 55 54 53 54 52 49 46
34 36 38 41 43 46 48 50 52 54 56 57 59 59 59 59 61 64 67 69 72 76 79 81 82 83 84 83 79 73 61 57 54 56 54 54 54 53 54 53 50 46 44
36 38 41 44 46 49 50 52 54 56 58 59 61 61 60 61 64 66 68 72 76 78 81 82 83 84 82 80 72 63 57 55 55 55 54 54 53 54 54 52 48 44 41
38 41 44 47 49 51 52 54 57 59 60 61 62 61 61 62 64 70 74 77 78 81 82 83 84 83 81 73 64 59 55 57 59 55 55 55 55 55 53 50 45 41 40
42 44 47 49 51 53 56 58 60 61 61 60 60 61 64 67 70 74 78 81 83 85 87 86 85 82 74 69 63 61 58 59 61 59 57 56 56 54 51 47 41 38 37
44 46 48 50 53 55 58 59 60 60 61 61 62 65 68 71 76 79 81 85 89 91 89 88 85 78 73 70 68 64 63 62 62 61 58 57 55 51 48 42 37 35 35
48 51 52 54 56 58 59 61 62 62 62 63 65 68 72 77 80 82 85 87 87 88 89 86 83 80 77 74 71 68 65 63 60 59 57 53 50 46 41 37 34 33 33
51 53 56 57 59 60 62 63 63 62 64 67 70 73 77 81 85 87 88 88 88 89 87 85 82 78 74 73 70 66 62 58 56 54 50 46 41 38 34 34 31 30 31
54 57 58 58 60 62 63 63 64 66 69 72 75 78 82 86 89 90 90 91 92 92 89 80 74 73 69 67 63 58 53 51 50 46 36 40 43 39 33 33 29 28 29
58 58 58 61 63 64 64 66 68 71 74 77 80 83 86 88 89 89 91 91 91 87 80 78 73 67 63 54 48 45 46 46 43 37 37 45 43 42 33 34 29 26 28
57 58 61 63 66 67 68 70 72 73 77 80 82 85 85 86 87 88 89 88 84 81 78 72 65 58 48 42 39 38 38 38 38 42 39 42 44 46 35 33 27 25 27
58 60 64 68 70 71 72 73 76 79 81 82 84 84 84 85 87 88 86 83 79 77 72 63 58 49 43 39 37 36 35 34 34 37 38 46 47 40 35 28 27 25 25
61 64 69 72 73 75 76 77 80 82 82 83 82 82 83 84 84 81 80 79 76 70 62 58 54 48 44 42 37 34 31 29 30 31 36 37 29 28 28 26 26 24 24
66 70 74 77 77 78 78 80 81 81 81 80 80 80 82 80 76 73 73 72 68 62 59 55 51 46 44 39 33 30 28 27 27 27 29 33 33 30 26 24 25 23 22
73 75 78 80 80 79 80 79 80 78 77 77 78 80 79 72 69 70 69 68 63 61 59 54 46 42 36 32 30 28 27 26 26 26 31 32 28 27 24 23 22 22 21
75 77 80 80 80 80 79 78 76 75 75 76 77 76 71 67 67 70 70 68 64 62 56 47 41 37 35 34 29 27 26 26 28 25 24 26 23 22 24 22 20 21 20
78 80 80 81 80 79 77 76 74 74 75 76 75 71 66 66 67 70 71 67 62 57 47 42 39 36 32 31 30 28 27 29 32 30 27 24 21 23 23 24 20 21 20
79 82 82 80 78 76 74 73 72 74 75 75 72 68 65 66 68 71 70 64 59 50 46 42 36 34 31 28 30 29 28 29 30 27 23 24 30 27 25 27 23 21 21
83 82 79 78 76 74 73 72 73 75 75 73 71 67 66 67 69 71 67 59 54 48 45 39 35 34 30 26 28 30 28 27 29 28 27 25 25 24 25 27 26 22 22
80 79 79 77 74 73 73 74 76 76 75 72 70 66 66 67 69 67 60 53 49 46 43 37 35 32 28 23 28 34 34 33 31 28 26 21 22 25 31 31 26 23 22
Wind_Direction
265 272 278 285 287 291 296 300 297 297 289 293 291 288 283 283 285 292 295 297 300 303 303 304 305 306 306 309 308 308 309 311 313 314 313 311 311 311 312 310 314 319 317
276 280 280 285 290 294 297 296 295 291 293 290 285 285 285 290 293 294 296 299 303 302 303 296 303 302 303 307 308 309 311 313 313 312 309 305 310 311 311 311 315 320 316
273 278 284 288 288 293 293 295 292 293 292 291 289 292 294 298 297 295 295 297 294 298 301 303 304 302 305 307 308 311 312 312 311 311 306 305 307 310 311 312 317 319 316
271 279 283 287 289 290 290 291 294 295 295 296 297 298 298 296 293 295 297 296 293 300 302 303 303 304 305 307 310 311 311 311 311 308 307 306 308 310 312 314 318 319 315
278 282 284 285 286 288 291 297 301 301 301 301 300 298 299 292 297 296 295 296 299 301 304 304 303 305 307 308 310 310 309 310 309 307 306 305 308 310 311 314 318 317 314
283 282 283 286 289 296 301 300 301 302 301 299 299 299 298 288 289 282 290 298 297 301 302 303 304 307 308 308 309 308 308 309 306 306 305 306 308 309 310 314 316 316 313
282 284 288 293 298 299 298 300 300 300 300 300 300 298 298 294 293 293 295 298 300 302 303 305 306 308 308 307 306 306 307 306 305 304 305 305 307 308 310 313 314 313 311
286 289 294 297 298 297 297 298 299 300 301 300 300 299 298 297 296 296 298 301 303 303 305 306 307 308 306 305 305 306 306 304 303 302 303 302 305 307 309 311 311 310 308
289 293 295 294 294 295 297 299 301 302 302 302 301 299 298 298 299 301 302 304 305 305 306 308 308 306 304 304 304 304 304 303 300 299 300 300 303 305 307 309 307 307 306
293 294 294 294 295 296 298 300 302 302 303 303 302 300 299 298 301 303 305 307 307 308 309 307 306 305 304 303 302 301 301 301 297 298 298 300 301 304 305 305 304 303 303
295 295 296 296 297 299 300 301 303 304 303 301 297 296 298 302 305 306 307 309 309 310 309 308 305 305 303 301 298 296 297 295 295 296 296 297 299 301 302 302 299 299 300
295 298 300 300 299 298 299 302 304 304 303 302 300 301 302 305 308 309 309 310 310 309 308 307 306 305 301 297 295 295 294 292 292 292 292 294 297 299 299 299 297 296 297
296 296 296 297 297 299 302 306 306 305 304 303 303 304 306 308 309 310 310 309 308 307 307 307 306 303 300 296 293 292 290 290 288 287 289 291 293 294 294 295 294 292 294
295 296 298 300 301 304 306 306 306 305 304 305 306 307 309 309 309 308 309 309 308 308 308 307 305 303 300 296 292 289 287 287 286 286 287 288 289 292 290 293 288 286 291
297 299 301 302 304 306 306 306 306 306 307 308 309 310 309 309 310 310 311 310 310 310 309 308 305 302 299 295 291 285 282 282 282 284 287 286 287 291 286 293 282 280 287
299 300 303 305 306 307 307 308 308 308 309 310 309 309 310 311 311 311 311 311 311 310 310 309 308 305 303 300 292 283 277 274 272 268 265 275 281 286 283 292 275 272 282
300 301 304 307 308 308 308 308 309 309 309 308 309 310 311 310 310 310 311 311 311 311 310 310 308 307 303 300 294 288 280 272 266 250 257 259 264 277 280 281 264 265 277
299 303 308 309 309 308 307 308 308 308 308 309 309 310 310 310 311 312 312 312 312 311 310 308 308 305 301 297 292 288 283 275 264 258 246 256 265 271 279 264 254 257 271
299 303 305 308 308 307 307 307 307 307 308 309 310 310 310 312 313 312 312 313 312 311 309 308 305 300 296 293 287 282 279 273 266 256 252 257 264 273 269 251 247 252 266
297 300 302 305 306 305 305 305 305 307 309 309 309 311 312 313 312 313 315 315 314 313 311 308 303 297 295 290 280 274 271 267 266 258 239 240 258 269 252 243 245 249 263
297 296 300 301 302 302 303 305 307 308 308 309 311 313 313 312 313 317 320 319 316 315 313 309 302 295 289 290 276 270 264 261 255 252 244 250 255 253 240 240 239 244 260
295 296 297 299 300 303 305 307 308 307 308 311 313 312 311 311 316 320 324 321 318 318 316 311 305 297 287 278 273 262 257 249 250 239 238 241 254 239 233 227 230 241 252
295 297 298 300 303 305 307 307 307 308 310 312 312 312 309 312 317 321 325 320 318 318 317 314 309 303 293 277 261 254 247 235 237 245 236 247 239 236 233 223 227 239 246
297 298 302 303 305 306 306 306 307 310 311 311 311 310 308 311 317 321 323 317 316 316 315 313 309 305 297 281 250 243 239 231 226 238 240 241 237 243 238 226 226 236 241
301 303 304 305 305 305 305 306 308 309 310 310 311 308 307 312 317 320 319 314 314 313 314 311 309 308 300 282 242 229 219 213 224 236 236 238 238 238 219 215 226 233 236
302 302 303 304 304 304 305 306 307 309 309 310 309 307 308 313 317 318 315 312 312 312 312 310 310 308 303 281 235 215 209 216 224 231 234 236 235 220 209 216 222 230 236